Location: Lafig�re
(44.4503°N, 4.0357°E)
Time: 01:06:12
(UTC+00:00)

CREW DRAGON DEMO-1 DEB - Visible Passes

Search period start: 24 January 2021 00:00
Search period end: 03 February 2021 00:00
Orbit: 342 x 348 km, 51.6° (Epoch: 23 January)

Date Brightness Start Highest point End Pass type
(mag) Time Alt. Az. Time Alt. Az. Time Alt. Az.
24 Jan 2.6 17:39:01 10° WNW 17:41:55 86° NE 17:44:38 11° ESE visible
24 Jan 6.1 19:15:40 10° WSW 19:16:08 11° WSW 19:16:08 11° WSW visible
25 Jan 4.5 18:03:03 10° WNW 18:05:40 31° SW 18:08:16 10° SSE visible
26 Jan 6.0 18:28:14 10° WSW 18:29:10 11° SW 18:30:05 10° SSW visible
27 Jan 4.7 17:15:28 10° WNW 17:18:04 31° SW 17:20:40 10° SSE visible
28 Jan 6.2 17:40:35 10° WSW 17:41:27 11° SW 17:42:19 10° SSW visible
